owner,sensor,date,latitude,longitude,air_pressure(mBar),qcFlag 
LOOP,urn:ioos:station:wmo:lopl1:1,2016-04-01T00:45:00Z,28.8850,-90.0250,1007.1,11111222 
LOOP,urn:ioos:station:wmo:lopl1:1,2016-04-01T01:45:00Z,28.8850,-90.0250,1007.1,11111222 
LOOP,urn:ioos:station:wmo:lopl1:1,2016-04-01T02:45:00Z,28.8850,-90.0250,1008.1,11111222 
LOOP,urn:ioos:station:wmo:lopl1:1,2016-04-01T03:45:00Z,28.8850,-90.0250,1008.1,11111222 
LOOP,urn:ioos:station:wmo:lopl1:1,2016-04-01T04:45:00Z,28.8850,-90.0250,1008.1,11111222 
LOOP,urn:ioos:station:wmo:lopl1:1,2016-04-01T05:45:00Z,28.8850,-90.0250,1008.1,11111222 
LOOP,urn:ioos:station:wmo:lopl1:1,2016-04-01T06:45:00Z,28.8850,-90.0250,1008.1,11111222 
LOOP,urn:ioos:station:wmo:lopl1:1,2016-04-01T07:50:00Z,28.8850,-90.0250,1008.1,11111222 
LOOP,urn:ioos:station:wmo:lopl1:1,2016-04-01T08:50:00Z,28.8850,-90.0250,1008.1,11111222 
LOOP,urn:ioos:station:wmo:lopl1:1,2016-04-01T09:50:00Z,28.8850,-90.0250,1008.1,11111222 
LOOP,urn:ioos:station:wmo:lopl1:1,2016-04-01T10:50:00Z,28.8850,-90.0250,1008.1,11111222 
LOOP,urn:ioos:station:wmo:lopl1:1,2016-04-01T11:50:00Z,28.8850,-90.0250,1007.1,11111222 
LOOP,urn:ioos:station:wmo:lopl1:1,2016-04-01T12:50:00Z,28.8850,-90.0250,1008.1,11111222 
LOOP,urn:ioos:station:wmo:lopl1:1,2016-04-01T13:50:00Z,28.8850,-90.0250,1009.1,11111222 
LOOP,urn:ioos:station:wmo:lopl1:1,2016-04-01T14:50:00Z,28.8850,-90.0250,1009.1,11111222 
LOOP,urn:ioos:station:wmo:lopl1:1,2016-04-01T15:50:00Z,28.8850,-90.0250,1009.1,11111222 
LOOP,urn:ioos:station:wmo:lopl1:1,2016-04-01T16:50:00Z,28.8850,-90.0250,1008.1,11111222 
LOOP,urn:ioos:station:wmo:lopl1:1,2016-04-01T17:50:00Z,28.8850,-90.0250,1007.1,11111222 
LOOP,urn:ioos:station:wmo:lopl1:1,2016-04-01T18:50:00Z,28.8850,-90.0250,1007.1,11111222 
LOOP,urn:ioos:station:wmo:lopl1:1,2016-04-01T19:50:00Z,28.8850,-90.0250,1006.1,11111222 
LOOP,urn:ioos:station:wmo:lopl1:1,2016-04-01T20:50:00Z,28.8850,-90.0250,1005.1,11111222 
LOOP,urn:ioos:station:wmo:lopl1:1,2016-04-01T21:50:00Z,28.8850,-90.0250,1005.1,11111222 
LOOP,urn:ioos:station:wmo:lopl1:1,2016-04-01T22:50:00Z,28.8850,-90.0250,1007.1,11111222 
LOOP,urn:ioos:station:wmo:lopl1:1,2016-04-01T23:50:00Z,28.8850,-90.0250,1007.1,11111222 
LOOP,urn:ioos:station:wmo:lopl1:1,2016-04-02T00:50:00Z,28.8850,-90.0250,1008.1,11111222 
LOOP,urn:ioos:station:wmo:lopl1:1,2016-04-02T01:50:00Z,28.8850,-90.0250,1009.1,11111222 
LOOP,urn:ioos:station:wmo:lopl1:1,2016-04-02T02:50:00Z,28.8850,-90.0250,1011.1,11111222 
LOOP,urn:ioos:station:wmo:lopl1:1,2016-04-02T03:51:00Z,28.8850,-90.0250,1011.1,11111222 
LOOP,urn:ioos:station:wmo:lopl1:1,2016-04-02T04:51:00Z,28.8850,-90.0250,1012.1,11111222 
LOOP,urn:ioos:station:wmo:lopl1:1,2016-04-02T05:51:00Z,28.8850,-90.0250,1011.1,11111222 
LOOP,urn:ioos:station:wmo:lopl1:1,2016-04-02T06:51:00Z,28.8850,-90.0250,1011.1,11111222 
LOOP,urn:ioos:station:wmo:lopl1:1,2016-04-02T07:51:00Z,28.8850,-90.0250,1012.1,11111222 
LOOP,urn:ioos:station:wmo:lopl1:1,2016-04-02T08:51:00Z,28.8850,-90.0250,1012.1,11111222 
LOOP,urn:ioos:station:wmo:lopl1:1,2016-04-02T09:51:00Z,28.8850,-90.0250,1013.1,11111222 
LOOP,urn:ioos:station:wmo:lopl1:1,2016-04-02T10:51:00Z,28.8850,-90.0250,1015.1,11111222 
LOOP,urn:ioos:station:wmo:lopl1:1,2016-04-02T11:51:00Z,28.8850,-90.0250,1016.1,11111222 
LOOP,urn:ioos:station:wmo:lopl1:1,2016-04-02T12:51:00Z,28.8850,-90.0250,1017.1,11111222 
LOOP,urn:ioos:station:wmo:lopl1:1,2016-04-02T13:56:00Z,28.8850,-90.0250,1018.1,11111222 
LOOP,urn:ioos:station:wmo:lopl1:1,2016-04-02T14:56:00Z,28.8850,-90.0250,1019.1,11111222 
LOOP,urn:ioos:station:wmo:lopl1:1,2016-04-02T15:56:00Z,28.8850,-90.0250,1020.1,11111222 
LOOP,urn:ioos:station:wmo:lopl1:1,2016-04-02T16:56:00Z,28.8850,-90.0250,1020.1,11111222 
LOOP,urn:ioos:station:wmo:lopl1:1,2016-04-02T17:56:00Z,28.8850,-90.0250,1019.1,11111222 
LOOP,urn:ioos:station:wmo:lopl1:1,2016-04-02T18:56:00Z,28.8850,-90.0250,1019.1,11111222 
LOOP,urn:ioos:station:wmo:lopl1:1,2016-04-02T19:56:00Z,28.8850,-90.0250,1018.1,11111222 
LOOP,urn:ioos:station:wmo:lopl1:1,2016-04-02T20:56:00Z,28.8850,-90.0250,1018.1,11111222 
LOOP,urn:ioos:station:wmo:lopl1:1,2016-04-02T21:56:00Z,28.8850,-90.0250,1017.1,11111222 
LOOP,urn:ioos:station:wmo:lopl1:1,2016-04-02T22:56:00Z,28.8850,-90.0250,1018.1,11111222 
LOOP,urn:ioos:station:wmo:lopl1:1,2016-04-02T23:56:00Z,28.8850,-90.0250,1018.1,11111222 
LOOP,urn:ioos:station:wmo:lopl1:1,2016-04-03T00:56:00Z,28.8850,-90.0250,1019.1,11111222 
LOOP,urn:ioos:station:wmo:lopl1:1,2016-04-03T02:06:00Z,28.8850,-90.0250,1020.1,11111222 
LOOP,urn:ioos:station:wmo:lopl1:1,2016-04-03T03:06:00Z,28.8850,-90.0250,1021.1,11111222 
LOOP,urn:ioos:station:wmo:lopl1:1,2016-04-03T04:06:00Z,28.8850,-90.0250,1021.1,11111222 
LOOP,urn:ioos:station:wmo:lopl1:1,2016-04-03T05:06:00Z,28.8850,-90.0250,1021.1,11111222 
LOOP,urn:ioos:station:wmo:lopl1:1,2016-04-03T06:06:00Z,28.8850,-90.0250,1021.1,11111222 
LOOP,urn:ioos:station:wmo:lopl1:1,2016-04-03T07:06:00Z,28.8850,-90.0250,1022.1,11111222 
LOOP,urn:ioos:station:wmo:lopl1:1,2016-04-03T08:11:00Z,28.8850,-90.0250,1021.1,11111222 
LOOP,urn:ioos:station:wmo:lopl1:1,2016-04-03T09:11:00Z,28.8850,-90.0250,1021.1,11111222 
LOOP,urn:ioos:station:wmo:lopl1:1,2016-04-03T10:11:00Z,28.8850,-90.0250,1021.1,11111222 
LOOP,urn:ioos:station:wmo:lopl1:1,2016-04-03T11:11:00Z,28.8850,-90.0250,1022.1,11111222 
LOOP,urn:ioos:station:wmo:lopl1:1,2016-04-03T12:11:00Z,28.8850,-90.0250,1022.1,11111222 
LOOP,urn:ioos:station:wmo:lopl1:1,2016-04-03T13:11:00Z,28.8850,-90.0250,1023.1,11111222 
LOOP,urn:ioos:station:wmo:lopl1:1,2016-04-03T14:11:00Z,28.8850,-90.0250,1023.1,11111222 
LOOP,urn:ioos:station:wmo:lopl1:1,2016-04-03T15:11:00Z,28.8850,-90.0250,1024.1,11111222 
LOOP,urn:ioos:station:wmo:lopl1:1,2016-04-03T16:11:00Z,28.8850,-90.0250,1024.1,11111222 
LOOP,urn:ioos:station:wmo:lopl1:1,2016-04-03T17:11:00Z,28.8850,-90.0250,1024.1,11111222 
LOOP,urn:ioos:station:wmo:lopl1:1,2016-04-03T18:11:00Z,28.8850,-90.0250,1023.1,11111222 
LOOP,urn:ioos:station:wmo:lopl1:1,2016-04-03T19:11:00Z,28.8850,-90.0250,1023.1,11111222 
LOOP,urn:ioos:station:wmo:lopl1:1,2016-04-03T20:21:00Z,28.8850,-90.0250,1022.1,11111222 
LOOP,urn:ioos:station:wmo:lopl1:1,2016-04-03T21:21:00Z,28.8850,-90.0250,1021.1,11111222 
LOOP,urn:ioos:station:wmo:lopl1:1,2016-04-03T22:21:00Z,28.8850,-90.0250,1021.1,11111222 
LOOP,urn:ioos:station:wmo:lopl1:1,2016-04-03T23:21:00Z,28.8850,-90.0250,1021.1,11111222 
LOOP,urn:ioos:station:wmo:lopl1:1,2016-04-04T00:21:00Z,28.8850,-90.0250,1021.1,11111222 
LOOP,urn:ioos:station:wmo:lopl1:1,2016-04-04T01:21:00Z,28.8850,-90.0250,1022.1,11111222 
LOOP,urn:ioos:station:wmo:lopl1:1,2016-04-04T02:21:00Z,28.8850,-90.0250,1022.1,11111222 
LOOP,urn:ioos:station:wmo:lopl1:1,2016-04-04T03:21:00Z,28.8850,-90.0250,1023.1,11111222 
LOOP,urn:ioos:station:wmo:lopl1:1,2016-04-04T04:21:00Z,28.8850,-90.0250,1022.1,11111222 
LOOP,urn:ioos:station:wmo:lopl1:1,2016-04-04T05:21:00Z,28.8850,-90.0250,1022.1,11111222 
LOOP,urn:ioos:station:wmo:lopl1:1,2016-04-04T06:21:00Z,28.8850,-90.0250,1022.1,11111222 
LOOP,urn:ioos:station:wmo:lopl1:1,2016-04-04T07:21:00Z,28.8850,-90.0250,1022.1,11111222 
LOOP,urn:ioos:station:wmo:lopl1:1,2016-04-04T08:21:00Z,28.8850,-90.0250,1021.1,11111222 
LOOP,urn:ioos:station:wmo:lopl1:1,2016-04-04T09:21:00Z,28.8850,-90.0250,1021.1,11111222 
LOOP,urn:ioos:station:wmo:lopl1:1,2016-04-04T10:21:00Z,28.8850,-90.0250,1021.1,11111222 
LOOP,urn:ioos:station:wmo:lopl1:1,2016-04-04T11:21:00Z,28.8850,-90.0250,1022.1,11111222 
LOOP,urn:ioos:station:wmo:lopl1:1,2016-04-04T12:21:00Z,28.8850,-90.0250,1023.1,11111222 
LOOP,urn:ioos:station:wmo:lopl1:1,2016-04-04T13:21:00Z,28.8850,-90.0250,1023.1,11111222 
LOOP,urn:ioos:station:wmo:lopl1:1,2016-04-04T14:21:00Z,28.8850,-90.0250,1024.1,11111222 
LOOP,urn:ioos:station:wmo:lopl1:1,2016-04-04T15:21:00Z,28.8850,-90.0250,1024.1,11111222 
LOOP,urn:ioos:station:wmo:lopl1:1,2016-04-04T16:21:00Z,28.8850,-90.0250,1024.1,11111222 
LOOP,urn:ioos:station:wmo:lopl1:1,2016-04-04T17:21:00Z,28.8850,-90.0250,1024.1,11111222 
LOOP,urn:ioos:station:wmo:lopl1:1,2016-04-04T18:21:00Z,28.8850,-90.0250,1023.1,11111222 
LOOP,urn:ioos:station:wmo:lopl1:1,2016-04-04T18:36:00Z,28.8850,-90.0250,1023.1,11111222 
LOOP,urn:ioos:station:wmo:lopl1:1,2016-04-04T19:36:00Z,28.8850,-90.0250,1023.1,11111222 
LOOP,urn:ioos:station:wmo:lopl1:1,2016-04-04T20:36:00Z,28.8850,-90.0250,1022.1,11111222 
LOOP,urn:ioos:station:wmo:lopl1:1,2016-04-04T21:36:00Z,28.8850,-90.0250,1022.1,11111222 
LOOP,urn:ioos:station:wmo:lopl1:1,2016-04-04T22:36:00Z,28.8850,-90.0250,1022.1,11111222 
LOOP,urn:ioos:station:wmo:lopl1:1,2016-04-04T23:36:00Z,28.8850,-90.0250,1022.1,11111222 
LOOP,urn:ioos:station:wmo:lopl1:1,2016-04-05T00:36:00Z,28.8850,-90.0250,1022.1,11111222 
LOOP,urn:ioos:station:wmo:lopl1:1,2016-04-05T01:36:00Z,28.8850,-90.0250,1022.1,11111222 
LOOP,urn:ioos:station:wmo:lopl1:1,2016-04-05T02:36:00Z,28.8850,-90.0250,1023.1,11111222 
LOOP,urn:ioos:station:wmo:lopl1:1,2016-04-05T03:36:00Z,28.8850,-90.0250,1023.1,11111222 
LOOP,urn:ioos:station:wmo:lopl1:1,2016-04-05T04:36:00Z,28.8850,-90.0250,1023.1,11111222 
LOOP,urn:ioos:station:wmo:lopl1:1,2016-04-05T05:36:00Z,28.8850,-90.0250,1023.1,11111222 
LOOP,urn:ioos:station:wmo:lopl1:1,2016-04-05T06:36:00Z,28.8850,-90.0250,1022.1,11111222 
LOOP,urn:ioos:station:wmo:lopl1:1,2016-04-05T07:36:00Z,28.8850,-90.0250,1022.1,11111222 
LOOP,urn:ioos:station:wmo:lopl1:1,2016-04-05T08:36:00Z,28.8850,-90.0250,1022.1,11111222 
LOOP,urn:ioos:station:wmo:lopl1:1,2016-04-05T09:36:00Z,28.8850,-90.0250,1022.1,11111222 
LOOP,urn:ioos:station:wmo:lopl1:1,2016-04-05T10:36:00Z,28.8850,-90.0250,1023.1,11111222 
LOOP,urn:ioos:station:wmo:lopl1:1,2016-04-05T11:36:00Z,28.8850,-90.0250,1023.1,11111222 
LOOP,urn:ioos:station:wmo:lopl1:1,2016-04-05T12:46:00Z,28.8850,-90.0250,1024.1,11111222 
LOOP,urn:ioos:station:wmo:lopl1:1,2016-04-05T13:46:00Z,28.8850,-90.0250,1024.1,11111222 
LOOP,urn:ioos:station:wmo:lopl1:1,2016-04-05T14:46:00Z,28.8850,-90.0250,1024.1,11111222 
LOOP,urn:ioos:station:wmo:lopl1:1,2016-04-05T15:51:00Z,28.8850,-90.0250,1025.1,11111222 
LOOP,urn:ioos:station:wmo:lopl1:1,2016-04-05T16:51:00Z,28.8850,-90.0250,1025.1,11111222 
LOOP,urn:ioos:station:wmo:lopl1:1,2016-04-05T17:51:00Z,28.8850,-90.0250,1024.1,11111222 
LOOP,urn:ioos:station:wmo:lopl1:1,2016-04-05T18:51:00Z,28.8850,-90.0250,1024.1,11111222 
LOOP,urn:ioos:station:wmo:lopl1:1,2016-04-05T19:51:00Z,28.8850,-90.0250,1023.1,11111222 
LOOP,urn:ioos:station:wmo:lopl1:1,2016-04-05T20:51:00Z,28.8850,-90.0250,1023.1,11111222 
LOOP,urn:ioos:station:wmo:lopl1:1,2016-04-05T22:01:00Z,28.8850,-90.0250,1022.1,11111222 
LOOP,urn:ioos:station:wmo:lopl1:1,2016-04-05T23:01:00Z,28.8850,-90.0250,1022.1,11111222 
LOOP,urn:ioos:station:wmo:lopl1:1,2016-04-06T00:01:00Z,28.8850,-90.0250,1021.1,11111222 
LOOP,urn:ioos:station:wmo:lopl1:1,2016-04-06T01:01:00Z,28.8850,-90.0250,1022.1,11111222 
LOOP,urn:ioos:station:wmo:lopl1:1,2016-04-06T02:01:00Z,28.8850,-90.0250,1022.1,11111222 
LOOP,urn:ioos:station:wmo:lopl1:1,2016-04-06T03:01:00Z,28.8850,-90.0250,1022.1,11111222 
LOOP,urn:ioos:station:wmo:lopl1:1,2016-04-06T04:02:00Z,28.8850,-90.0250,1021.1,11111222 
LOOP,urn:ioos:station:wmo:lopl1:1,2016-04-06T05:02:00Z,28.8850,-90.0250,1022.1,11111222 
LOOP,urn:ioos:station:wmo:lopl1:1,2016-04-06T06:02:00Z,28.8850,-90.0250,1021.1,11111222 
LOOP,urn:ioos:station:wmo:lopl1:1,2016-04-06T07:02:00Z,28.8850,-90.0250,1020.1,11111222 
LOOP,urn:ioos:station:wmo:lopl1:1,2016-04-06T08:02:00Z,28.8850,-90.0250,1020.1,11111222 
LOOP,urn:ioos:station:wmo:lopl1:1,2016-04-06T09:17:00Z,28.8850,-90.0250,1019.1,11111222 
LOOP,urn:ioos:station:wmo:lopl1:1,2016-04-06T10:17:00Z,28.8850,-90.0250,1019.1,11111222 
LOOP,urn:ioos:station:wmo:lopl1:1,2016-04-06T11:17:00Z,28.8850,-90.0250,1019.1,11111222 
LOOP,urn:ioos:station:wmo:lopl1:1,2016-04-06T12:17:00Z,28.8850,-90.0250,1019.1,11111222 
LOOP,urn:ioos:station:wmo:lopl1:1,2016-04-06T13:17:00Z,28.8850,-90.0250,1019.1,11111222 
LOOP,urn:ioos:station:wmo:lopl1:1,2016-04-06T14:17:00Z,28.8850,-90.0250,1019.1,11111222 
LOOP,urn:ioos:station:wmo:lopl1:1,2016-04-06T15:17:00Z,28.8850,-90.0250,1019.1,11111222 
LOOP,urn:ioos:station:wmo:lopl1:1,2016-04-06T16:17:00Z,28.8850,-90.0250,1020.1,11111222 
LOOP,urn:ioos:station:wmo:lopl1:1,2016-04-06T17:27:00Z,28.8850,-90.0250,1020.1,11111222 
LOOP,urn:ioos:station:wmo:lopl1:1,2016-04-06T18:27:00Z,28.8850,-90.0250,1020.1,11111222 
LOOP,urn:ioos:station:wmo:lopl1:1,2016-04-06T19:27:00Z,28.8850,-90.0250,1019.1,11111222 
LOOP,urn:ioos:station:wmo:lopl1:1,2016-04-06T19:37:00Z,28.8850,-90.0250,1019.1,11111222 
LOOP,urn:ioos:station:wmo:lopl1:1,2016-04-06T20:37:00Z,28.8850,-90.0250,1018.1,11111222 
LOOP,urn:ioos:station:wmo:lopl1:1,2016-04-06T21:37:00Z,28.8850,-90.0250,1017.1,11111222 
LOOP,urn:ioos:station:wmo:lopl1:1,2016-04-06T22:37:00Z,28.8850,-90.0250,1016.1,11111222 
LOOP,urn:ioos:station:wmo:lopl1:1,2016-04-06T23:42:00Z,28.8850,-90.0250,1016.1,11111222 
LOOP,urn:ioos:station:wmo:lopl1:1,2016-04-07T00:42:00Z,28.8850,-90.0250,1016.1,11111222 
LOOP,urn:ioos:station:wmo:lopl1:1,2016-04-07T01:42:00Z,28.8850,-90.0250,1016.1,11111222 
LOOP,urn:ioos:station:wmo:lopl1:1,2016-04-07T02:42:00Z,28.8850,-90.0250,1016.1,11111222 
LOOP,urn:ioos:station:wmo:lopl1:1,2016-04-07T03:42:00Z,28.8850,-90.0250,1017.1,11111222 
LOOP,urn:ioos:station:wmo:lopl1:1,2016-04-07T04:42:00Z,28.8850,-90.0250,1016.1,11111222 
LOOP,urn:ioos:station:wmo:lopl1:1,2016-04-07T05:42:00Z,28.8850,-90.0250,1017.1,11111222 
LOOP,urn:ioos:station:wmo:lopl1:1,2016-04-07T06:42:00Z,28.8850,-90.0250,1016.1,11111222 
LOOP,urn:ioos:station:wmo:lopl1:1,2016-04-07T07:52:00Z,28.8850,-90.0250,1015.1,11111222 
LOOP,urn:ioos:station:wmo:lopl1:1,2016-04-07T08:52:00Z,28.8850,-90.0250,1015.1,11111222 
LOOP,urn:ioos:station:wmo:lopl1:1,2016-04-07T09:52:00Z,28.8850,-90.0250,1015.1,11111222 
LOOP,urn:ioos:station:wmo:lopl1:1,2016-04-07T10:52:00Z,28.8850,-90.0250,1016.1,11111222 
LOOP,urn:ioos:station:wmo:lopl1:1,2016-04-07T11:52:00Z,28.8850,-90.0250,1016.1,11111222 
LOOP,urn:ioos:station:wmo:lopl1:1,2016-04-07T12:52:00Z,28.8850,-90.0250,1016.1,11111222 
LOOP,urn:ioos:station:wmo:lopl1:1,2016-04-07T13:52:00Z,28.8850,-90.0250,1017.1,11111222 
LOOP,urn:ioos:station:wmo:lopl1:1,2016-04-07T14:52:00Z,28.8850,-90.0250,1017.1,11111222 
LOOP,urn:ioos:station:wmo:lopl1:1,2016-04-07T15:52:00Z,28.8850,-90.0250,1017.1,11111222 
LOOP,urn:ioos:station:wmo:lopl1:1,2016-04-07T16:52:00Z,28.8850,-90.0250,1016.1,11111222 
LOOP,urn:ioos:station:wmo:lopl1:1,2016-04-07T17:52:00Z,28.8850,-90.0250,1016.1,11111222 
LOOP,urn:ioos:station:wmo:lopl1:1,2016-04-07T18:52:00Z,28.8850,-90.0250,1016.1,11111222 
LOOP,urn:ioos:station:wmo:lopl1:1,2016-04-07T19:52:00Z,28.8850,-90.0250,1016.1,11111222 
LOOP,urn:ioos:station:wmo:lopl1:1,2016-04-07T20:52:00Z,28.8850,-90.0250,1015.1,11111222 
LOOP,urn:ioos:station:wmo:lopl1:1,2016-04-07T21:52:00Z,28.8850,-90.0250,1015.1,11111222 
LOOP,urn:ioos:station:wmo:lopl1:1,2016-04-07T22:52:00Z,28.8850,-90.0250,1015.1,11111222 
LOOP,urn:ioos:station:wmo:lopl1:1,2016-04-07T23:52:00Z,28.8850,-90.0250,1016.1,11111222 
LOOP,urn:ioos:station:wmo:lopl1:1,2016-04-08T00:52:00Z,28.8850,-90.0250,1016.1,11111222 
LOOP,urn:ioos:station:wmo:lopl1:1,2016-04-08T02:02:00Z,28.8850,-90.0250,1016.1,11111222 
LOOP,urn:ioos:station:wmo:lopl1:1,2016-04-08T03:02:00Z,28.8850,-90.0250,1016.1,11111222 
LOOP,urn:ioos:station:wmo:lopl1:1,2016-04-08T04:02:00Z,28.8850,-90.0250,1017.1,11111222 
LOOP,urn:ioos:station:wmo:lopl1:1,2016-04-08T05:02:00Z,28.8850,-90.0250,1017.1,11111222 
LOOP,urn:ioos:station:wmo:lopl1:1,2016-04-08T06:02:00Z,28.8850,-90.0250,1016.1,11111222 
LOOP,urn:ioos:station:wmo:lopl1:1,2016-04-08T07:07:00Z,28.8850,-90.0250,1016.1,11111222 
LOOP,urn:ioos:station:wmo:lopl1:1,2016-04-08T08:07:00Z,28.8850,-90.0250,1016.1,11111222 
LOOP,urn:ioos:station:wmo:lopl1:1,2016-04-08T09:07:00Z,28.8850,-90.0250,1015.1,11111222 
LOOP,urn:ioos:station:wmo:lopl1:1,2016-04-08T10:07:00Z,28.8850,-90.0250,1016.1,11111222 
LOOP,urn:ioos:station:wmo:lopl1:1,2016-04-08T11:07:00Z,28.8850,-90.0250,1016.1,11111222 
LOOP,urn:ioos:station:wmo:lopl1:1,2016-04-08T12:07:00Z,28.8850,-90.0250,1017.1,11111222 
LOOP,urn:ioos:station:wmo:lopl1:1,2016-04-08T13:07:00Z,28.8850,-90.0250,1018.1,11111222 
LOOP,urn:ioos:station:wmo:lopl1:1,2016-04-08T14:07:00Z,28.8850,-90.0250,1019.1,11111222 
LOOP,urn:ioos:station:wmo:lopl1:1,2016-04-08T15:07:00Z,28.8850,-90.0250,1019.1,11111222 
LOOP,urn:ioos:station:wmo:lopl1:1,2016-04-08T16:07:00Z,28.8850,-90.0250,1020.1,11111222 
LOOP,urn:ioos:station:wmo:lopl1:1,2016-04-08T17:07:00Z,28.8850,-90.0250,1020.1,11111222 
LOOP,urn:ioos:station:wmo:lopl1:1,2016-04-08T18:07:00Z,28.8850,-90.0250,1020.1,11111222 
LOOP,urn:ioos:station:wmo:lopl1:1,2016-04-08T19:07:00Z,28.8850,-90.0250,1020.1,11111222 
LOOP,urn:ioos:station:wmo:lopl1:1,2016-04-08T20:07:00Z,28.8850,-90.0250,1019.1,11111222 
LOOP,urn:ioos:station:wmo:lopl1:1,2016-04-08T21:07:00Z,28.8850,-90.0250,1019.1,11111222 
LOOP,urn:ioos:station:wmo:lopl1:1,2016-04-08T22:07:00Z,28.8850,-90.0250,1019.1,11111222 
LOOP,urn:ioos:station:wmo:lopl1:1,2016-04-08T23:07:00Z,28.8850,-90.0250,1019.1,11111222 
LOOP,urn:ioos:station:wmo:lopl1:1,2016-04-09T00:22:00Z,28.8850,-90.0250,1019.1,11111222 
LOOP,urn:ioos:station:wmo:lopl1:1,2016-04-09T01:32:00Z,28.8850,-90.0250,1020.1,11111222 
LOOP,urn:ioos:station:wmo:lopl1:1,2016-04-09T02:32:00Z,28.8850,-90.0250,1021.1,11111222 
LOOP,urn:ioos:station:wmo:lopl1:1,2016-04-09T03:32:00Z,28.8850,-90.0250,1021.1,11111222 
LOOP,urn:ioos:station:wmo:lopl1:1,2016-04-09T04:32:00Z,28.8850,-90.0250,1021.1,11111222 
LOOP,urn:ioos:station:wmo:lopl1:1,2016-04-09T05:32:00Z,28.8850,-90.0250,1021.1,11111222 
LOOP,urn:ioos:station:wmo:lopl1:1,2016-04-09T06:32:00Z,28.8850,-90.0250,1021.1,11111222 
LOOP,urn:ioos:station:wmo:lopl1:1,2016-04-09T07:32:00Z,28.8850,-90.0250,1020.1,11111222 
LOOP,urn:ioos:station:wmo:lopl1:1,2016-04-09T08:32:00Z,28.8850,-90.0250,1020.1,11111222 
LOOP,urn:ioos:station:wmo:lopl1:1,2016-04-09T09:42:00Z,28.8850,-90.0250,1020.1,11111222 
LOOP,urn:ioos:station:wmo:lopl1:1,2016-04-09T10:42:00Z,28.8850,-90.0250,1020.1,11111222 
LOOP,urn:ioos:station:wmo:lopl1:1,2016-04-09T11:42:00Z,28.8850,-90.0250,1021.1,11111222 
LOOP,urn:ioos:station:wmo:lopl1:1,2016-04-09T12:42:00Z,28.8850,-90.0250,1022.1,11111222 
LOOP,urn:ioos:station:wmo:lopl1:1,2016-04-09T13:57:00Z,28.8850,-90.0250,1023.1,11111222 
LOOP,urn:ioos:station:wmo:lopl1:1,2016-04-09T14:57:00Z,28.8850,-90.0250,1024.1,11111222 
LOOP,urn:ioos:station:wmo:lopl1:1,2016-04-09T15:57:00Z,28.8850,-90.0250,1024.1,11111222 
LOOP,urn:ioos:station:wmo:lopl1:1,2016-04-09T17:07:00Z,28.8850,-90.0250,1025.1,11111222 
LOOP,urn:ioos:station:wmo:lopl1:1,2016-04-09T18:07:00Z,28.8850,-90.0250,1024.1,11111222 
LOOP,urn:ioos:station:wmo:lopl1:1,2016-04-09T19:07:00Z,28.8850,-90.0250,1023.1,11111222 
LOOP,urn:ioos:station:wmo:lopl1:1,2016-04-09T20:07:00Z,28.8850,-90.0250,1023.1,11111222 
LOOP,urn:ioos:station:wmo:lopl1:1,2016-04-09T21:17:00Z,28.8850,-90.0250,1022.1,11111222 
LOOP,urn:ioos:station:wmo:lopl1:1,2016-04-09T22:17:00Z,28.8850,-90.0250,1021.1,11111222 
LOOP,urn:ioos:station:wmo:lopl1:1,2016-04-09T23:17:00Z,28.8850,-90.0250,1021.1,11111222 
LOOP,urn:ioos:station:wmo:lopl1:1,2016-04-10T00:17:00Z,28.8850,-90.0250,1021.1,11111222 
LOOP,urn:ioos:station:wmo:lopl1:1,2016-04-10T01:17:00Z,28.8850,-90.0250,1022.1,11111222 
LOOP,urn:ioos:station:wmo:lopl1:1,2016-04-10T02:17:00Z,28.8850,-90.0250,1022.1,11111222 
LOOP,urn:ioos:station:wmo:lopl1:1,2016-04-10T03:17:00Z,28.8850,-90.0250,1023.1,11111222 
LOOP,urn:ioos:station:wmo:lopl1:1,2016-04-10T04:17:00Z,28.8850,-90.0250,1022.1,11111222 
LOOP,urn:ioos:station:wmo:lopl1:1,2016-04-10T05:17:00Z,28.8850,-90.0250,1022.1,11111222 
LOOP,urn:ioos:station:wmo:lopl1:1,2016-04-10T05:27:00Z,28.8850,-90.0250,1022.1,11111222 
LOOP,urn:ioos:station:wmo:lopl1:1,2016-04-10T06:27:00Z,28.8850,-90.0250,1021.1,11111222 
LOOP,urn:ioos:station:wmo:lopl1:1,2016-04-10T07:32:00Z,28.8850,-90.0250,1021.1,11111222 
LOOP,urn:ioos:station:wmo:lopl1:1,2016-04-10T08:32:00Z,28.8850,-90.0250,1020.1,11111222 
LOOP,urn:ioos:station:wmo:lopl1:1,2016-04-10T09:32:00Z,28.8850,-90.0250,1020.1,11111222 
LOOP,urn:ioos:station:wmo:lopl1:1,2016-04-10T10:32:00Z,28.8850,-90.0250,1021.1,11111222 
LOOP,urn:ioos:station:wmo:lopl1:1,2016-04-10T11:32:00Z,28.8850,-90.0250,1021.1,11111222 
LOOP,urn:ioos:station:wmo:lopl1:1,2016-04-10T12:32:00Z,28.8850,-90.0250,1022.1,11111222 
LOOP,urn:ioos:station:wmo:lopl1:1,2016-04-10T13:32:00Z,28.8850,-90.0250,1022.1,11111222 
LOOP,urn:ioos:station:wmo:lopl1:1,2016-04-10T14:32:00Z,28.8850,-90.0250,1022.1,11111222 
LOOP,urn:ioos:station:wmo:lopl1:1,2016-04-10T15:32:00Z,28.8850,-90.0250,1023.1,11111222 
LOOP,urn:ioos:station:wmo:lopl1:1,2016-04-10T16:32:00Z,28.8850,-90.0250,1023.1,11111222 
LOOP,urn:ioos:station:wmo:lopl1:1,2016-04-10T17:32:00Z,28.8850,-90.0250,1023.1,11111222 
LOOP,urn:ioos:station:wmo:lopl1:1,2016-04-10T18:32:00Z,28.8850,-90.0250,1023.1,11111222 
LOOP,urn:ioos:station:wmo:lopl1:1,2016-04-10T19:32:00Z,28.8850,-90.0250,1022.1,11111222 
LOOP,urn:ioos:station:wmo:lopl1:1,2016-04-10T20:32:00Z,28.8850,-90.0250,1022.1,11111222 
LOOP,urn:ioos:station:wmo:lopl1:1,2016-04-10T21:32:00Z,28.8850,-90.0250,1021.1,11111222 
LOOP,urn:ioos:station:wmo:lopl1:1,2016-04-10T23:07:00Z,28.8850,-90.0250,1020.1,11111222 
LOOP,urn:ioos:station:wmo:lopl1:1,2016-04-11T00:07:00Z,28.8850,-90.0250,1020.1,11111222 
LOOP,urn:ioos:station:wmo:lopl1:1,2016-04-11T01:07:00Z,28.8850,-90.0250,1020.1,11111222 
LOOP,urn:ioos:station:wmo:lopl1:1,2016-04-11T02:07:00Z,28.8850,-90.0250,1020.1,11111222 
LOOP,urn:ioos:station:wmo:lopl1:1,2016-04-11T03:07:00Z,28.8850,-90.0250,1020.1,11111222 
LOOP,urn:ioos:station:wmo:lopl1:1,2016-04-11T04:07:00Z,28.8850,-90.0250,1020.1,11111222 
LOOP,urn:ioos:station:wmo:lopl1:1,2016-04-11T05:07:00Z,28.8850,-90.0250,1020.1,11111222 
LOOP,urn:ioos:station:wmo:lopl1:1,2016-04-11T06:07:00Z,28.8850,-90.0250,1019.1,11111222 
LOOP,urn:ioos:station:wmo:lopl1:1,2016-04-11T07:07:00Z,28.8850,-90.0250,1018.1,11111222 
LOOP,urn:ioos:station:wmo:lopl1:1,2016-04-11T08:07:00Z,28.8850,-90.0250,1017.1,11111222 
LOOP,urn:ioos:station:wmo:lopl1:1,2016-04-11T09:07:00Z,28.8850,-90.0250,1018.1,11111222 
LOOP,urn:ioos:station:wmo:lopl1:1,2016-04-11T10:07:00Z,28.8850,-90.0250,1018.1,11111222 
LOOP,urn:ioos:station:wmo:lopl1:1,2016-04-11T11:07:00Z,28.8850,-90.0250,1019.1,11111222 
LOOP,urn:ioos:station:wmo:lopl1:1,2016-04-11T12:07:00Z,28.8850,-90.0250,1020.1,11111222 
LOOP,urn:ioos:station:wmo:lopl1:1,2016-04-11T13:07:00Z,28.8850,-90.0250,1021.1,11111222 
LOOP,urn:ioos:station:wmo:lopl1:1,2016-04-11T14:07:00Z,28.8850,-90.0250,1021.1,11111222 
LOOP,urn:ioos:station:wmo:lopl1:1,2016-04-11T15:07:00Z,28.8850,-90.0250,1019.1,11111222 
LOOP,urn:ioos:station:wmo:lopl1:1,2016-04-11T16:07:00Z,28.8850,-90.0250,1019.1,11111222 
LOOP,urn:ioos:station:wmo:lopl1:1,2016-04-11T17:07:00Z,28.8850,-90.0250,1018.1,11111222 
LOOP,urn:ioos:station:wmo:lopl1:1,2016-04-11T18:07:00Z,28.8850,-90.0250,1018.1,11111222 
LOOP,urn:ioos:station:wmo:lopl1:1,2016-04-11T18:22:00Z,28.8850,-90.0250,1017.1,11111222 
LOOP,urn:ioos:station:wmo:lopl1:1,2016-04-11T19:22:00Z,28.8850,-90.0250,1017.1,11111222 
LOOP,urn:ioos:station:wmo:lopl1:1,2016-04-11T20:22:00Z,28.8850,-90.0250,1017.1,11111222 
LOOP,urn:ioos:station:wmo:lopl1:1,2016-04-11T21:22:00Z,28.8850,-90.0250,1017.1,11111222 
LOOP,urn:ioos:station:wmo:lopl1:1,2016-04-11T22:22:00Z,28.8850,-90.0250,1017.1,11111222 
LOOP,urn:ioos:station:wmo:lopl1:1,2016-04-11T23:22:00Z,28.8850,-90.0250,1016.1,11111222 
LOOP,urn:ioos:station:wmo:lopl1:1,2016-04-12T00:22:00Z,28.8850,-90.0250,1016.1,11111222 
LOOP,urn:ioos:station:wmo:lopl1:1,2016-04-12T01:22:00Z,28.8850,-90.0250,1015.1,11111222 
LOOP,urn:ioos:station:wmo:lopl1:1,2016-04-12T02:22:00Z,28.8850,-90.0250,1016.1,11111222 
LOOP,urn:ioos:station:wmo:lopl1:1,2016-04-12T03:22:00Z,28.8850,-90.0250,1017.1,11111222 
LOOP,urn:ioos:station:wmo:lopl1:1,2016-04-12T04:32:00Z,28.8850,-90.0250,1018.1,11111222 